Wetbulb
67.46 70.47 73.45 73.93 73.76 74.50 74.13 73.06 73.21 73.15 72.87 73.28 73.18 72.94 73.02 72.87 72.35 72.08 72.14 71.69 71.21 70.77 70.13 69.04 69.14 70.11 70.15 71.05 70.56 69.77 68.96 68.58 68.38 68.04 68.44 69.65 69.76 69.86 69.29 69.84 70.01 68.34 70.79
67.52 71.42 73.43 74.03 74.02 74.57 74.64 74.15 73.53 73.25 73.62 73.95 73.19 72.69 72.65 72.56 72.10 71.49 70.95 70.55 70.04 69.23 67.82 67.66 67.79 68.54 69.55 69.57 69.38 67.66 68.49 69.28 69.25 69.80 69.32 68.77 69.06 68.64 67.84 69.23 69.71 67.26 69.03
69.32 71.26 72.00 73.53 73.94 74.23 74.41 74.19 73.44 73.54 73.75 73.12 73.02 71.33 71.56 72.30 71.51 70.89 70.16 69.80 68.84 67.86 67.88 67.83 67.69 68.58 68.74 68.76 67.65 69.59 69.99 69.85 69.14 69.08 68.13 67.39 67.82 69.44 69.05 69.04 69.22 67.99 67.53
69.91 70.59 70.94 73.19 73.81 74.35 74.30 74.04 73.53 73.53 73.23 73.11 72.42 70.97 70.94 71.80 70.88 69.98 69.50 68.64 67.88 67.84 67.78 67.66 67.65 67.13 66.84 66.81 67.51 69.40 69.12 68.17 68.73 66.84 65.64 65.16 67.25 69.97 69.71 69.01 68.71 67.80 66.78
67.95 70.00 70.11 72.82 73.16 73.75 73.69 74.07 73.83 73.35 72.86 72.79 71.63 70.63 70.28 70.85 69.86 68.97 68.28 67.91 67.52 67.58 67.34 66.81 66.43 65.70 65.71 66.98 67.68 67.60 67.62 68.24 67.15 63.91 61.83 62.35 63.46 67.53 68.67 68.30 67.39 67.01 67.62
67.24 68.98 70.54 72.03 72.66 72.78 72.69 73.13 73.75 73.01 72.48 71.93 70.38 70.39 69.84 69.43 68.66 68.02 67.73 67.47 68.33 68.06 66.59 66.10 65.35 65.40 67.50 68.24 67.54 67.32 67.67 66.40 64.09 60.61 61.27 64.57 63.41 68.40 68.14 68.11 68.25 67.24 66.36
66.29 67.70 69.31 72.23 72.46 72.52 72.90 72.45 72.84 72.75 72.13 71.40 70.13 69.28 68.91 68.35 68.01 67.38 66.96 66.96 66.92 66.99 66.12 65.88 66.47 67.46 67.78 67.02 67.38 68.07 67.28 66.06 62.67 62.68 62.50 63.02 65.23 67.74 67.91 67.80 67.21 66.90 66.48
65.92 67.40 68.80 70.81 71.77 72.24 72.48 72.57 72.37 72.12 71.65 70.94 69.74 69.22 68.37 68.03 67.48 66.86 66.27 66.37 66.22 66.35 66.29 66.60 66.90 67.49 66.74 66.92 68.32 67.69 66.54 64.67 61.47 61.99 61.85 63.15 66.18 66.35 66.90 66.42 65.43 65.75 66.35
65.07 66.77 68.10 69.05 70.22 71.00 71.30 71.26 71.60 71.48 70.85 70.50 70.06 69.52 68.60 68.17 67.72 66.49 66.05 65.90 65.95 66.22 66.66 66.81 67.11 67.04 66.24 66.11 67.46 66.37 64.86 63.44 58.28 60.48 61.58 62.49 65.63 66.05 65.63 65.45 64.31 63.91 65.06
62.45 65.41 67.09 67.47 68.15 69.34 69.69 70.01 69.95 70.12 69.79 69.76 69.14 68.14 67.26 66.47 66.22 66.60 66.07 65.47 65.84 66.28 68.18 66.42 67.21 66.39 66.08 67.42 66.20 64.99 63.10 60.94 56.35 59.65 61.40 63.14 64.45 64.37 64.00 63.26 63.64 63.68 63.30
57.46 62.83 65.34 66.78 66.85 67.99 68.75 68.86 69.16 68.92 68.59 68.19 67.58 66.11 64.79 62.33 62.86 63.69 64.15 64.98 65.63 66.11 67.60 66.68 66.97 66.84 65.57 64.61 64.09 62.61 60.58 56.62 58.07 58.10 59.17 65.01 64.24 64.57 63.85 63.00 63.41 63.08 63.00
54.45 55.66 62.36 65.45 65.42 67.05 68.36 67.13 67.90 67.90 67.19 67.01 66.05 63.81 61.37 60.24 60.35 62.47 62.20 64.53 65.68 65.46 66.53 66.03 66.33 65.87 60.98 57.22 59.12 59.12 56.08 55.23 55.52 58.34 61.41 64.65 63.26 63.67 63.43 62.87 62.74 62.65 62.42
52.83 56.18 61.31 63.56 65.65 65.57 66.30 66.67 67.37 66.96 66.53 65.55 63.39 61.03 59.89 59.67 59.59 59.61 61.29 62.74 62.87 62.21 62.35 63.08 63.19 59.30 55.89 56.12 55.29 55.09 56.14 56.44 56.55 57.80 60.51 62.50 62.96 62.97 62.96 62.90 62.38 62.43 61.93
52.50 55.49 57.33 61.80 64.48 65.50 65.98 66.54 67.13 66.34 65.13 63.03 61.99 59.71 59.23 58.35 57.52 58.45 60.33 60.96 60.75 61.13 59.55 59.01 58.08 56.32 55.58 54.49 55.81 55.21 55.03 55.33 54.76 56.00 60.57 62.50 63.18 63.32 63.54 62.77 62.50 62.09 62.01
52.29 54.95 57.61 59.88 62.25 65.08 64.43 66.26 66.49 65.56 64.35 62.92 61.16 59.60 59.01 58.14 57.75 58.92 58.00 59.82 57.88 59.48 58.93 57.46 56.39 55.06 54.46 54.64 55.72 54.71 53.68 53.85 54.64 55.71 58.66 61.00 62.53 62.71 62.40 63.04 62.22 61.92 61.88
51.91 53.88 56.40 59.04 61.23 63.77 63.35 65.18 65.64 65.35 64.25 62.90 61.24 59.30 58.11 58.23 57.91 59.05 58.24 57.97 57.83 58.76 57.50 56.48 55.09 53.58 52.80 54.28 54.21 54.00 53.60 54.02 54.48 54.31 54.69 57.08 60.97 61.79 62.59 63.19 62.93 62.11 61.59
51.40 53.11 54.87 57.95 60.61 61.75 63.75 64.52 64.85 64.91 64.22 62.45 61.50 59.34 57.67 58.09 57.94 58.62 58.30 57.63 58.04 58.37 56.26 55.18 53.58 52.01 49.32 54.35 53.24 53.30 53.23 52.60 53.21 52.54 52.57 52.85 54.80 59.67 62.22 61.60 62.23 62.13 61.81
51.28 51.86 53.35 57.25 59.36 60.07 60.22 58.20 57.86 57.13 63.50 62.52 61.84 59.55 56.51 57.46 57.88 58.17 58.06 57.55 57.59 57.43 55.90 54.31 51.40 49.86 49.33 52.95 52.43 52.97 53.02 52.60 51.29 50.18 50.97 51.93 53.24 54.16 58.71 60.57 60.44 60.48 60.28
52.01 52.17 52.79 56.42 57.99 58.22 56.34 56.55 56.01 55.89 56.26 57.24 61.10 59.02 55.96 56.87 57.02 57.47 57.33 57.12 55.58 56.44 54.66 53.75 50.70 50.69 49.65 51.01 51.61 50.60 50.83 50.24 49.71 49.66 48.62 51.22 52.39 51.78 52.57 57.41 57.27 57.29 57.24
52.19 52.34 54.78 54.99 57.16 56.12 56.38 54.89 55.02 55.52 55.17 55.43 54.53 56.91 56.44 56.37 55.85 56.46 56.21 55.05 54.49 54.08 52.37 52.17 51.54 50.28 50.68 51.11 51.89 48.73 47.58 46.93 47.16 46.50 47.17 50.26 49.57 49.67 49.33 49.01 48.63 51.06 53.63
54.54 55.92 55.73 53.72 53.20 53.48 53.28 52.41 52.51 52.61 53.84 54.07 54.50 54.46 55.01 55.41 54.79 54.64 54.08 52.58 54.05 52.96 52.79 52.79 51.63 50.47 48.23 49.97 46.88 46.01 44.96 44.95 44.77 45.52 45.91 46.50 47.86 47.93 47.29 47.34 45.26 44.20 46.18
55.33 55.68 54.65 54.15 52.80 52.83 52.68 51.52 52.56 52.73 53.74 54.05 54.75 54.37 52.95 52.97 52.95 52.92 52.00 51.82 52.27 51.99 51.29 52.09 51.34 50.14 48.16 50.45 47.13 45.94 41.41 43.28 43.65 44.21 44.38 46.13 45.10 45.79 45.65 45.51 41.94 41.42 41.15
53.43 53.69 54.60 54.47 53.29 51.82 52.30 52.27 52.36 53.14 53.10 52.80 53.28 53.40 53.38 51.69 51.39 52.01 51.64 51.47 51.22 52.10 51.56 52.49 52.43 51.51 49.24 47.39 49.69 45.00 41.00 40.30 41.65 43.02 43.03 44.37 43.72 43.53 42.10 42.02 41.13 40.80 40.51
53.75 54.53 54.50 55.52 54.41 52.80 52.52 52.11 51.46 51.05 50.38 51.90 51.97 53.32 53.50 52.09 50.65 50.79 50.42 50.37 50.31 51.64 51.93 52.33 53.16 52.28 51.02 47.92 45.76 46.64 45.02 44.04 40.91 39.12 42.52 42.57 43.76 42.48 40.55 40.72 40.25 40.15 39.57
54.39 53.71 54.22 54.92 55.04 54.39 53.03 52.26 51.81 50.80 51.05 51.83 52.08 52.17 52.76 51.38 51.30 50.94 50.90 49.64 49.26 49.52 50.41 51.34 51.27 51.74 51.96 49.66 49.01 43.78 43.52 43.21 43.02 41.31 38.48 39.27 40.02 42.21 41.39 39.94 39.56 38.94 38.40
54.42 54.28 53.85 53.77 54.36 54.93 53.96 53.07 51.95 50.86 51.01 51.62 52.32 51.58 51.50 51.24 51.02 50.82 50.96 50.64 50.22 50.14 48.74 49.91 51.37 51.93 51.85 50.57 47.53 44.65 44.45 43.26 42.50 41.91 39.54 38.15 37.35 38.27 39.65 39.47 38.72 38.35 37.19
MSLP
1010.47 1010.14 1010.22 1010.45 1010.66 1010.84 1011.15 1011.42 1011.62 1011.79 1012.06 1012.28 1012.61 1012.86 1013.07 1013.36 1013.56 1013.74 1014.03 1014.21 1014.35 1014.53 1014.80 1014.98 1015.11 1015.22 1015.28 1015.47 1015.76 1015.99 1016.18 1016.35 1016.47 1016.52 1016.58 1016.60 1016.61 1016.81 1016.93 1016.85 1017.03 1017.13 1017.07
1009.86 1010.05 1010.30 1010.62 1010.80 1010.88 1011.11 1011.50 1011.82 1011.93 1012.10 1012.36 1012.67 1013.06 1013.28 1013.56 1013.86 1014.01 1014.28 1014.53 1014.69 1014.86 1015.05 1015.17 1015.27 1015.42 1015.49 1015.81 1016.09 1016.19 1016.36 1016.51 1016.64 1016.66 1016.69 1016.84 1016.98 1017.20 1017.22 1017.21 1017.40 1017.50 1017.59
1009.67 1009.98 1010.29 1010.69 1010.94 1011.11 1011.20 1011.55 1011.88 1012.10 1012.25 1012.59 1012.74 1013.09 1013.30 1013.64 1014.05 1014.28 1014.48 1014.78 1015.00 1015.16 1015.25 1015.37 1015.48 1015.55 1015.86 1016.16 1016.26 1016.42 1016.55 1016.61 1016.83 1016.90 1017.16 1017.38 1017.34 1017.25 1017.38 1017.68 1017.78 1017.90 1018.14
1009.71 1010.07 1010.34 1010.69 1010.95 1011.24 1011.35 1011.44 1011.74 1012.19 1012.44 1012.69 1012.88 1013.25 1013.39 1013.73 1014.16 1014.42 1014.66 1014.94 1015.17 1015.32 1015.48 1015.64 1015.82 1016.10 1016.26 1016.37 1016.43 1016.60 1016.68 1016.91 1017.08 1017.25 1017.48 1017.71 1017.70 1017.65 1017.81 1017.99 1018.15 1018.34 1018.49
1009.83 1010.01 1010.28 1010.60 1011.04 1011.19 1011.36 1011.49 1011.68 1012.08 1012.51 1012.77 1012.96 1013.39 1013.57 1013.88 1014.25 1014.54 1014.84 1015.06 1015.29 1015.49 1015.73 1015.93 1016.15 1016.37 1016.50 1016.61 1016.69 1016.80 1016.90 1017.06 1017.46 1017.76 1017.93 1018.13 1018.05 1018.03 1018.20 1018.37 1018.56 1018.73 1018.79
1009.83 1009.85 1010.04 1010.27 1010.62 1011.16 1011.26 1011.41 1011.72 1012.04 1012.39 1012.63 1013.17 1013.58 1013.82 1014.07 1014.28 1014.64 1014.98 1015.34 1015.48 1015.73 1016.03 1016.25 1016.41 1016.55 1016.71 1016.86 1016.99 1017.11 1017.29 1017.52 1017.99 1018.26 1018.30 1018.32 1018.43 1018.45 1018.54 1018.75 1018.92 1019.04 1019.08
1009.78 1009.81 1010.00 1010.05 1010.24 1010.77 1011.24 1011.45 1011.64 1011.98 1012.30 1012.59 1013.28 1013.74 1014.02 1014.22 1014.44 1014.67 1015.17 1015.57 1015.76 1015.95 1016.21 1016.42 1016.49 1016.73 1016.90 1017.05 1017.16 1017.47 1017.67 1017.92 1018.40 1018.67 1018.74 1018.68 1018.69 1018.79 1018.96 1019.12 1019.36 1019.41 1019.33
1009.82 1009.77 1009.83 1010.05 1010.04 1010.34 1010.92 1011.33 1011.70 1011.93 1012.29 1012.65 1013.23 1013.67 1014.10 1014.33 1014.54 1014.88 1015.31 1015.63 1015.87 1016.06 1016.31 1016.37 1016.71 1016.93 1017.15 1017.25 1017.39 1017.78 1018.07 1018.46 1018.64 1018.90 1018.91 1019.07 1019.20 1019.25 1019.52 1019.59 1019.81 1019.90 1019.86
1009.82 1009.76 1009.86 1009.92 1010.13 1010.19 1010.57 1011.10 1011.43 1011.90 1012.28 1012.67 1013.22 1013.56 1014.05 1014.46 1014.68 1015.05 1015.42 1015.67 1015.89 1016.17 1016.17 1016.46 1016.84 1017.07 1017.34 1017.45 1017.76 1018.11 1018.55 1018.81 1019.15 1019.16 1019.40 1019.56 1019.67 1019.83 1019.99 1020.09 1020.24 1020.19 1020.20
1009.73 1009.85 1009.90 1009.92 1010.09 1010.36 1010.45 1010.70 1011.31 1011.66 1012.18 1012.59 1013.20 1013.56 1013.95 1014.60 1014.93 1015.13 1015.50 1015.70 1015.92 1016.18 1016.33 1016.65 1016.98 1017.28 1017.54 1017.60 1018.01 1018.40 1018.82 1019.20 1019.60 1019.65 1019.88 1020.00 1020.06 1020.13 1020.28 1020.38 1020.47 1020.49 1020.60
1009.72 1009.65 1009.80 1010.03 1010.04 1010.12 1010.33 1010.54 1010.97 1011.51 1011.96 1012.50 1013.18 1013.60 1014.09 1014.69 1015.20 1015.25 1015.55 1015.71 1016.07 1016.31 1016.51 1016.87 1017.18 1017.51 1017.88 1018.07 1018.47 1018.76 1019.07 1019.65 1019.75 1020.21 1020.25 1020.22 1020.31 1020.57 1020.75 1020.63 1020.83 1020.79 1020.98
1009.69 1009.52 1009.49 1009.66 1009.96 1009.98 1010.14 1010.53 1011.00 1011.47 1011.95 1012.46 1013.07 1013.65 1014.21 1014.64 1015.32 1015.51 1015.55 1015.83 1016.20 1016.59 1016.77 1017.02 1017.34 1017.83 1018.29 1018.59 1018.89 1019.07 1019.46 1019.86 1020.15 1020.50 1020.50 1020.41 1020.39 1020.58 1020.72 1021.00 1021.07 1021.18 1021.24
1009.23 1009.35 1009.08 1009.24 1009.43 1009.78 1010.11 1010.51 1010.97 1011.43 1011.87 1012.37 1012.96 1013.61 1014.22 1014.62 1015.20 1015.70 1015.70 1015.90 1016.35 1016.76 1017.06 1017.31 1017.63 1018.15 1018.74 1018.86 1019.21 1019.50 1019.73 1020.05 1020.45 1020.63 1020.59 1020.60 1020.80 1020.95 1021.11 1021.28 1021.38 1021.52 1021.53
1008.92 1008.91 1008.74 1008.88 1009.18 1009.34 1009.45 1010.14 1010.66 1011.12 1011.71 1012.22 1012.60 1013.36 1013.99 1014.55 1015.13 1015.53 1015.54 1015.79 1016.35 1016.60 1017.25 1017.65 1018.02 1018.35 1018.90 1019.04 1019.36 1019.77 1020.00 1020.29 1020.78 1020.92 1020.94 1020.95 1021.02 1021.21 1021.42 1021.60 1021.61 1021.85 1021.98
1008.50 1008.38 1008.42 1008.56 1008.85 1009.06 1009.32 1009.72 1010.40 1010.78 1011.20 1011.85 1012.14 1012.95 1013.51 1014.17 1014.81 1015.16 1015.60 1015.88 1016.47 1016.73 1017.22 1017.81 1018.24 1018.58 1018.93 1019.30 1019.69 1020.03 1020.47 1020.57 1020.82 1021.36 1021.40 1021.34 1021.34 1021.53 1021.48 1021.64 1021.92 1022.09 1022.27
1007.73 1007.82 1007.74 1008.07 1008.35 1008.63 1008.97 1009.42 1009.95 1010.21 1010.55 1011.41 1011.72 1012.40 1013.09 1013.59 1014.22 1014.66 1015.32 1015.93 1016.44 1016.71 1017.23 1017.71 1018.27 1018.73 1019.20 1019.45 1020.17 1020.41 1020.67 1020.72 1021.02 1021.57 1021.87 1021.97 1022.02 1022.03 1021.90 1022.01 1022.23 1022.40 1022.49
1006.89 1006.98 1007.39 1007.46 1007.77 1008.20 1008.50 1009.14 1010.20 1009.94 1010.12 1010.70 1011.34 1011.69 1012.59 1013.18 1013.74 1014.22 1014.91 1015.69 1016.13 1016.54 1017.13 1017.73 1018.30 1018.79 1019.48 1019.64 1020.40 1020.80 1020.89 1021.21 1021.44 1021.90 1022.22 1022.50 1022.76 1022.43 1022.26 1022.21 1022.47 1022.67 1023.03
1006.24 1006.62 1006.64 1006.92 1007.36 1007.90 1008.38 1009.36 1010.16 1009.96 1009.39 1009.90 1010.72 1010.94 1012.09 1012.75 1013.19 1013.92 1014.54 1015.20 1015.78 1016.42 1016.88 1017.54 1018.17 1018.83 1019.56 1020.12 1020.72 1021.07 1021.11 1021.60 1021.95 1022.22 1022.55 1022.90 1023.18 1023.17 1022.99 1022.90 1022.99 1023.06 1023.28
1005.74 1006.12 1006.47 1006.80 1007.33 1008.07 1008.51 1009.22 1010.09 1009.83 1010.86 1010.84 1010.82 1010.12 1011.25 1012.08 1012.80 1013.35 1014.13 1014.74 1015.47 1016.20 1016.82 1017.37 1018.05 1018.55 1019.53 1020.26 1020.75 1021.35 1021.71 1021.96 1022.39 1022.57 1022.91 1023.30 1023.48 1023.80 1023.83 1023.79 1023.90 1024.01 1024.06
1005.58 1005.93 1006.40 1006.92 1007.35 1008.09 1008.50 1009.02 1009.58 1010.67 1010.28 1010.59 1011.48 1010.95 1009.85 1011.16 1012.11 1012.70 1013.53 1014.45 1015.16 1015.98 1016.70 1017.25 1017.97 1018.49 1019.16 1019.96 1020.94 1021.88 1022.23 1022.40 1022.57 1023.02 1023.22 1023.41 1023.84 1024.10 1024.30 1024.49 1024.56 1024.67 1024.61
1005.81 1006.25 1006.63 1006.95 1007.52 1007.86 1008.44 1008.86 1009.31 1009.34 1009.00 1010.06 1011.50 1012.10 1011.72 1010.43 1011.51 1012.09 1013.00 1013.98 1014.71 1015.54 1016.10 1016.83 1017.73 1018.18 1019.18 1019.81 1021.07 1022.52 1023.09 1023.11 1023.06 1023.25 1023.47 1023.63 1023.96 1024.26 1024.50 1024.71 1024.95 1025.17 1025.21
1006.22 1006.60 1006.91 1007.15 1007.37 1007.59 1007.80 1008.17 1008.42 1008.66 1009.21 1009.33 1010.93 1011.47 1011.96 1011.59 1011.38 1011.66 1012.36 1013.45 1014.29 1015.12 1015.89 1016.50 1017.02 1018.17 1019.01 1019.19 1020.34 1021.88 1023.59 1024.07 1023.90 1023.71 1023.61 1023.59 1023.87 1024.11 1024.48 1024.83 1025.15 1025.47 1025.70
1006.74 1006.90 1007.03 1007.29 1007.60 1007.91 1008.01 1008.31 1008.83 1008.91 1009.46 1009.26 1010.06 1009.87 1012.34 1012.11 1011.77 1011.70 1011.95 1013.05 1014.00 1014.48 1015.27 1015.80 1016.45 1016.99 1018.07 1019.19 1019.04 1020.13 1022.60 1023.13 1023.72 1023.96 1023.90 1023.79 1024.07 1024.21 1024.53 1024.84 1025.29 1025.61 1025.81
1006.71 1007.03 1007.24 1007.30 1007.58 1008.03 1008.11 1008.14 1008.22 1008.42 1008.81 1009.36 1007.42 1010.34 1011.98 1012.44 1011.44 1011.68 1011.93 1012.54 1013.52 1014.27 1014.82 1015.45 1016.00 1016.52 1017.37 1018.30 1019.03 1019.28 1019.97 1020.90 1022.72 1023.89 1024.02 1023.97 1024.07 1024.46 1024.78 1025.00 1025.31 1025.58 1025.89
1006.93 1007.05 1007.29 1007.48 1007.56 1007.94 1008.56 1008.34 1008.36 1008.70 1009.20 1009.03 1008.52 1009.84 1010.50 1011.09 1011.41 1011.37 1011.85 1012.52 1013.11 1014.08 1014.71 1015.25 1015.83 1016.34 1016.87 1017.69 1018.16 1019.26 1020.08 1020.66 1021.35 1022.22 1023.60 1024.18 1024.30 1024.45 1024.68 1024.97 1025.34 1025.55 1025.76
1007.24 1007.30 1007.26 1007.36 1007.48 1007.70 1008.12 1008.45 1008.09 1008.57 1008.72 1008.84 1008.71 1009.20 1010.61 1010.83 1011.38 1011.20 1011.53 1012.39 1012.79 1013.70 1014.44 1014.89 1015.40 1015.94 1016.61 1017.36 1018.08 1018.67 1019.38 1020.16 1020.89 1021.34 1022.58 1023.74 1024.37 1024.69 1024.84 1025.20 1025.47 1025.59 1025.70
Wind_Speed
6 5 16 16 16 19 19 19 17 16 15 16 17 17 16 16 16 16 15 14 13 13 12 11 12 12 13 16 15 15 15 14 14 14 12 12 12 16 14 16 16 12 18
11 9 17 15 16 16 18 17 16 16 15 17 18 17 16 16 15 15 14 13 13 12 11 12 13 13 15 15 14 15 15 16 16 15 12 10 12 13 14 15 13 14 18
13 12 13 15 16 13 16 16 16 14 16 17 17 15 15 16 14 14 14 13 12 12 13 13 14 16 15 15 15 15 16 18 17 16 11 5 7 16 16 16 16 17 16
12 11 11 16 13 16 16 16 17 15 17 15 16 15 15 15 14 13 13 13 12 13 14 14 14 14 15 15 15 15 12 13 13 12 8 6 9 18 19 19 19 18 15
10 10 11 16 14 12 17 17 17 17 17 14 15 15 15 15 14 13 12 13 13 13 14 14 14 14 14 14 15 12 12 14 14 10 7 6 5 13 18 18 15 16 15
7 9 11 16 17 12 13 18 19 19 18 14 14 14 15 15 15 14 13 13 12 13 15 14 15 15 13 14 14 14 18 19 13 6 6 8 7 16 17 18 16 17 15
7 7 9 17 17 16 13 16 19 19 17 16 16 15 15 15 15 15 14 14 15 15 15 16 17 17 14 12 15 17 18 17 8 6 6 6 10 17 17 18 17 18 17
5 6 10 14 17 17 15 16 17 19 17 18 17 16 16 16 16 16 16 16 16 17 18 17 18 16 15 14 20 19 18 14 8 8 7 9 14 15 16 17 16 14 16
4 5 7 10 12 16 17 18 19 18 18 17 16 16 15 14 15 17 17 17 18 18 18 18 17 15 14 15 20 19 16 13 7 6 7 6 13 16 15 16 14 12 14
2 3 7 6 8 9 11 17 18 20 17 17 16 15 13 12 13 16 15 17 17 17 17 18 17 15 17 20 20 18 17 15 6 8 6 7 15 15 14 14 16 15 14
2 4 6 6 6 8 9 12 16 17 17 16 13 13 13 6 7 10 9 15 16 16 16 18 16 14 15 17 17 15 15 4 8 4 3 13 15 16 15 15 15 16 15
5 5 6 7 7 7 8 7 10 11 9 9 9 11 7 7 5 6 8 13 14 14 14 18 15 12 10 5 7 10 6 6 5 4 5 12 15 16 16 14 15 14 15
6 4 7 7 9 9 8 6 5 5 6 7 11 10 8 7 5 4 4 7 7 10 7 8 6 4 6 6 6 5 6 6 4 2 9 12 14 14 14 14 14 14 15
7 8 8 7 8 9 7 7 8 8 6 7 10 11 8 6 6 5 5 7 6 6 5 4 3 5 6 7 8 7 6 6 4 3 6 10 14 14 15 13 15 14 13
8 8 9 7 7 9 10 8 9 9 9 10 11 11 10 9 9 7 5 7 5 5 6 5 4 4 6 9 7 9 6 7 8 4 3 12 11 13 13 15 14 13 13
9 9 9 8 7 8 8 11 10 9 11 10 10 12 13 10 9 9 8 7 6 6 5 5 5 5 4 9 7 8 7 7 9 7 4 6 11 6 11 15 14 13 14
10 10 9 9 8 8 10 10 6 9 11 12 11 15 14 13 12 12 10 8 8 6 7 5 4 4 5 7 8 6 7 6 7 7 5 5 5 8 9 13 14 14 13
6 9 9 7 8 7 7 9 4 10 9 11 11 13 14 14 15 12 10 10 8 6 7 6 4 5 6 8 7 6 6 6 7 7 6 4 4 4 9 14 13 13 12
9 8 8 6 6 11 11 9 6 10 5 6 6 13 16 16 15 13 11 10 10 7 8 7 3 8 8 7 7 5 4 6 6 6 7 6 6 5 4 14 15 14 13
6 4 5 6 11 11 7 5 5 7 6 2 6 6 19 15 17 14 11 11 10 8 7 6 9 6 9 9 8 6 4 4 5 5 5 6 5 5 5 6 5 6 12
5 6 9 10 9 9 6 4 3 3 3 5 4 8 12 15 16 14 10 11 11 10 10 10 9 12 5 11 7 6 5 4 5 5 4 5 5 5 5 5 4 3 4
3 5 7 8 9 7 6 3 3 4 3 8 7 6 10 9 13 13 13 12 13 10 10 11 11 7 4 10 8 8 3 2 2 1 3 5 6 5 5 5 5 5 4
3 5 8 7 6 4 6 7 5 5 4 4 7 7 5 8 10 12 13 12 11 12 11 13 13 13 12 1 17 7 4 5 3 0 3 4 6 4 4 6 5 5 5
5 4 7 8 6 4 8 10 15 10 7 6 13 9 5 11 6 8 9 10 10 8 11 11 12 11 13 12 2 3 3 6 5 3 1 2 4 5 5 4 5 5 5
3 3 5 5 7 6 6 3 8 6 3 3 6 16 15 6 7 9 10 9 9 6 9 11 9 12 12 10 8 3 3 3 3 4 4 3 2 2 3 5 5 4 5
5 2 5 7 7 8 9 5 7 6 6 6 3 7 6 7 7 9 10 10 10 10 9 9 10 13 12 9 5 4 5 5 4 4 4 3 4 1 2 3 4 4 4
Wind_Direction
186 186 160 163 166 157 153 152 150 146 144 139 134 130 127 126 128 126 124 122 123 126 127 133 134 128 125 113 105 105 104 103 100 96 94 92 85 103 89 84 81 70 70
161 169 157 167 165 160 155 153 153 150 155 143 138 136 135 133 132 134 132 130 130 130 135 136 138 135 134 121 121 112 111 107 105 92 84 93 99 102 97 92 86 80 69
153 159 155 170 163 165 155 156 155 160 150 146 141 143 145 135 135 139 139 135 134 137 136 138 137 136 125 131 125 119 116 107 96 90 82 65 109 109 107 103 97 91 79
150 159 158 166 175 172 167 162 162 166 153 148 141 150 153 136 137 145 139 139 137 140 139 130 129 129 133 132 126 120 115 116 92 81 80 64 84 95 100 95 88 85 82
158 160 166 168 180 184 177 170 160 160 159 157 143 156 155 141 146 146 145 141 146 138 138 133 133 134 132 127 124 118 112 134 99 89 83 80 80 84 81 83 85 92 89
156 169 171 170 172 194 190 176 167 164 161 157 158 156 158 155 151 150 150 145 141 144 137 140 140 138 138 129 123 115 110 107 99 92 89 95 85 96 100 96 92 96 95
169 174 184 180 176 184 187 180 168 163 152 142 160 169 167 160 156 154 154 153 147 145 145 148 138 136 125 110 125 120 111 98 101 87 87 81 98 98 92 93 84 78 84
137 188 186 191 186 182 182 175 168 161 154 153 170 171 170 165 160 158 158 161 156 151 151 150 143 136 115 113 123 115 103 100 89 93 90 80 87 95 84 85 84 87 75
107 167 193 198 201 185 183 179 165 162 161 159 172 169 170 164 157 160 161 164 160 158 153 142 145 137 116 124 116 107 99 92 80 76 86 87 100 94 87 87 91 93 92
140 163 190 205 196 194 191 178 173 164 162 163 173 168 154 149 157 160 165 166 163 162 149 144 148 137 110 113 114 107 96 86 97 81 87 100 105 107 114 107 96 92 93
193 200 190 203 204 195 192 189 171 167 163 162 169 148 138 138 157 160 165 165 163 165 154 147 153 140 113 106 110 105 102 100 93 91 97 109 104 102 109 99 97 99 97
205 225 206 203 208 192 198 188 180 170 168 166 157 147 144 139 150 163 172 151 161 163 152 153 161 131 102 92 110 100 102 97 91 99 109 118 118 115 110 106 108 105 95
218 227 216 202 200 190 194 170 173 166 165 160 150 150 151 146 150 161 165 157 158 161 166 148 154 118 113 117 114 107 103 97 94 106 125 127 115 118 112 106 103 102 104
224 221 227 210 192 201 185 177 174 172 168 166 161 155 158 156 157 164 180 157 153 163 141 137 145 134 118 118 121 105 103 105 90 60 115 117 125 119 109 108 103 101 92
219 223 226 204 198 202 199 179 179 181 171 180 165 166 162 166 171 162 168 160 151 142 151 152 157 137 117 128 118 117 110 108 95 72 54 81 83 102 125 111 112 102 98
217 218 214 208 200 195 196 181 191 184 177 179 178 169 171 169 170 166 163 164 158 157 157 158 154 145 125 135 122 126 124 110 104 95 74 68 72 98 109 112 97 99 99
216 216 208 211 190 191 183 183 198 199 189 178 191 167 173 173 172 168 165 168 168 160 154 153 144 117 114 136 128 132 115 110 108 101 89 74 52 39 95 115 109 103 93
203 206 212 205 186 183 128 99 152 49 222 179 189 167 174 174 171 169 169 171 168 158 162 163 145 122 128 139 134 136 121 113 109 106 95 87 68 45 59 76 82 83 91
208 212 214 181 138 129 123 124 101 76 36 359 233 180 176 173 174 170 173 171 167 163 170 168 146 143 137 139 130 113 107 118 121 114 108 101 90 71 58 82 78 75 79
211 209 129 122 127 129 130 121 122 148 102 92 6 307 170 174 174 170 169 169 173 164 162 155 154 142 136 134 126 98 90 104 117 122 121 116 109 99 91 81 74 83 86
72 125 151 139 141 138 139 140 154 149 129 110 95 337 274 174 171 167 164 165 173 174 173 162 149 140 115 130 109 84 41 45 104 129 134 134 133 131 117 111 100 79 80
135 153 162 157 156 154 151 139 145 146 148 140 134 136 331 201 169 164 159 167 173 165 161 161 149 146 122 159 133 120 120 24 17 123 144 149 148 141 134 132 118 109 99
211 169 174 161 159 160 150 123 108 80 133 142 134 108 301 286 165 164 162 163 169 166 170 169 160 161 161 173 156 136 143 185 138 202 222 159 149 140 131 134 128 126 117
227 228 197 166 162 175 177 161 166 170 169 217 147 134 195 274 163 153 149 155 159 168 169 171 167 164 162 163 118 120 103 136 171 153 237 192 147 148 146 150 140 133 128
236 180 177 195 175 173 224 206 167 170 181 166 139 163 179 201 206 160 160 154 154 159 172 170 165 168 175 167 176 141 102 78 102 134 154 167 82 139 158 152 149 144 148
347 206 202 187 189 183 196 227 191 163 156 160 135 160 194 177 204 171 165 175 170 174 173 177 173 172 176 175 166 147 155 159 169 147 118 134 153 136 147 160 158 160 150